Location: Passau
(48.5830°N, 13.4830°E)
Time: 10:46:48
(UTC+02:00)

Tiros 1 - All Passes

Search period start: 31 July 2021 00:00
Search period end: 10 August 2021 00:00
Orbit: 630 x 664 km, 48.4° (Epoch: 30 July)

Date Brightness Start Highest point End Pass type
(mag) Time Alt. Az. Time Alt. Az. Time Alt. Az.
31 Jul - 00:21:09 10° W 00:25:47 57° SSW 00:30:21 10° ESE visible
31 Jul - 02:04:01 10° W 02:07:19 19° SW 02:10:35 10° S visible
31 Jul - 18:02:34 10° SSE 18:04:09 12° SE 18:05:43 10° ESE daylight
31 Jul - 19:40:58 10° SW 19:45:26 40° SSE 19:49:53 10° E daylight
31 Jul - 21:22:38 10° WSW 21:27:24 83° S 21:32:08 10° E visible
31 Jul - 23:04:53 10° W 23:09:39 80° S 23:14:20 10° ESE visible
01 Aug - 00:47:14 10° W 00:51:32 36° SSW 00:55:46 10° SE visible
01 Aug - 18:25:53 10° SSW 18:29:35 22° SE 18:33:16 10° E daylight
01 Aug - 20:06:31 10° WSW 20:11:14 62° SSE 20:15:55 10° E daylight
01 Aug - 21:48:37 10° W 21:53:24 89° SSE 21:58:07 10° E visible
01 Aug - 23:30:52 10° W 23:35:32 60° SSW 23:40:08 10° ESE visible
02 Aug - 01:13:39 10° W 01:17:07 20° SW 01:20:32 10° S visible
02 Aug - 17:12:58 10° SE 17:13:56 11° SE 17:14:56 10° ESE daylight
02 Aug - 18:50:46 10° SW 18:55:11 38° SSE 18:59:36 10° E daylight
02 Aug - 20:32:21 10° WSW 20:37:09 82° S 20:41:53 10° E daylight
02 Aug - 22:14:36 10° W 22:19:22 82° S 22:24:05 10° ESE visible
02 Aug - 23:56:56 10° W 00:01:18 38° SSW 00:05:37 10° SE visible
03 Aug - 01:42:10 10° SW 01:42:30 10° SW 01:42:50 10° SW visible
03 Aug - 17:35:47 10° S 17:39:22 21° SE 17:42:56 10° E daylight
03 Aug - 19:16:16 10° WSW 19:20:58 60° SSE 19:25:39 10° E daylight
03 Aug - 20:58:19 10° W 21:03:07 89° SSW 21:07:52 10° E daylight
03 Aug - 22:40:35 10° W 22:45:17 62° SSW 22:49:55 10° ESE visible
04 Aug - 00:23:17 10° W 00:26:54 22° SW 00:30:28 10° SSE visible
04 Aug - 18:00:34 10° SW 18:04:57 36° SSE 18:09:20 10° E daylight
04 Aug - 19:42:04 10° WSW 19:46:52 80° S 19:51:38 10° E daylight
04 Aug - 21:24:19 10° W 21:29:07 83° S 21:33:50 10° ESE visible
04 Aug - 23:06:38 10° W 23:11:04 40° SSW 23:15:27 10° SE visible
05 Aug - 00:50:58 10° WSW 00:52:19 11° SW 00:53:40 10° SSW visible
05 Aug - 16:45:41 10° S 16:49:08 20° SE 16:52:35 10° E daylight
05 Aug - 18:26:00 10° WSW 18:30:43 58° SSE 18:35:24 10° E daylight
05 Aug - 20:08:02 10° W 20:12:52 89° SE 20:17:37 10° E daylight
05 Aug - 21:50:18 10° W 21:55:01 65° SSW 21:59:41 10° ESE visible
05 Aug - 23:32:56 10° W 23:36:41 24° SW 23:40:23 10° SSE visible
06 Aug - 17:10:22 10° SSW 17:14:42 35° SSE 17:19:02 10° E daylight
06 Aug - 18:51:48 10° WSW 18:56:36 78° SSE 19:01:22 10° E daylight
06 Aug - 20:34:02 10° W 20:38:50 85° S 20:43:35 10° E daylight
06 Aug - 22:16:20 10° W 22:20:49 42° SSW 22:25:16 10° SE visible
07 Aug - 00:00:15 10° WSW 00:02:07 12° SW 00:03:59 10° SSW visible
07 Aug - 15:55:37 10° S 15:58:54 19° SE 16:02:12 10° E daylight
07 Aug - 17:35:46 10° SW 17:40:27 55° SSE 17:45:08 10° E daylight
07 Aug - 19:17:45 10° W 19:22:35 89° SSE 19:27:21 10° E daylight
07 Aug - 21:00:01 10° W 21:04:46 67° SSW 21:09:27 10° ESE visible
07 Aug - 22:42:35 10° W 22:46:28 25° SW 22:50:18 10° SSE visible
08 Aug - 16:20:11 10° SSW 16:24:28 33° SSE 16:28:44 10° E daylight
08 Aug - 18:01:32 10° WSW 18:06:20 76° SSE 18:11:07 10° E daylight
08 Aug - 19:43:45 10° W 19:48:33 86° S 19:53:20 10° E daylight
08 Aug - 21:26:02 10° W 21:30:35 45° SSW 21:35:04 10° SE visible
08 Aug - 23:09:40 10° WSW 23:11:55 13° SW 23:14:09 10° SSW visible
09 Aug - 15:05:34 10° S 15:08:41 17° SE 15:11:49 10° E daylight
09 Aug - 16:45:31 10° SW 16:50:11 53° SSE 16:54:51 10° E daylight
09 Aug - 18:27:28 10° W 18:32:17 88° S 18:37:05 10° E daylight
09 Aug - 20:09:43 10° W 20:14:29 70° SSW 20:19:13 10° ESE daylight
09 Aug - 21:52:14 10° W 21:56:14 27° SW 22:00:11 10° SSE visible
